Previsão horária em Abaclia

Hoje, 12 Abril, Segunda-feira

Tempo Temperatura Precipitação Vento Pressão Humidade
00:00 +9°C° 0 mm 2 m/s 763 mmHg 48%
01:00 +9°C° 0 mm 2 m/s 763 mmHg 49%
02:00 +8°C° 0 mm 2 m/s 762 mmHg 50%
03:00 +8°C° 0 mm 2 m/s 762 mmHg 52%
04:00 +7°C° 0 mm 2 m/s 762 mmHg 54%
05:00 +7°C° 0 mm 2 m/s 762 mmHg 55%
06:00 +8°C° 0 mm 2 m/s 762 mmHg 53%
07:00 +10°C° 0 mm 2 m/s 762 mmHg 50%
08:00 +12°C° 0 mm 2 m/s 762 mmHg 47%
09:00 +14°C° 0 mm 2 m/s 761 mmHg 43%
10:00 +14°C° 0 mm 3 m/s 761 mmHg 40%
11:00 +16°C° 0 mm 3 m/s 761 mmHg 36%
12:00 +17°C° 0 mm 3 m/s 760 mmHg 35%
13:00 +18°C° 0 mm 2 m/s 760 mmHg 33%
14:00 +19°C° 0 mm 2 m/s 760 mmHg 32%
15:00 +18°C° 0 mm 3 m/s 759 mmHg 34%
16:00 +18°C° 0 mm 2 m/s 759 mmHg 34%
17:00 +18°C° 0 mm 2 m/s 759 mmHg 35%
18:00 +17°C° 0 mm 2 m/s 759 mmHg 41%
19:00 +15°C° 0 mm 2 m/s 759 mmHg 47%
20:00 +14°C° 0 mm 2 m/s 760 mmHg 53%
21:00 +13°C° 0 mm 1 m/s 759 mmHg 57%
22:00 +12°C° 0 mm 1 m/s 759 mmHg 62%
23:00 +11°C° 0 mm 1 m/s 759 mmHg 66%

Amanhã, 13 Abril, Terça-feira

Tempo Temperatura Precipitação Vento Pressão Humidade
00:00 +11°C° 0 mm 1 m/s 759 mmHg 66%
01:00 +11°C° 0 mm 1 m/s 759 mmHg 66%
02:00 +10°C° 0 mm 1 m/s 758 mmHg 66%
03:00 +11°C° 0 mm 1 m/s 758 mmHg 67%
04:00 +11°C° 0 mm 1 m/s 758 mmHg 67%
05:00 +11°C° 0 mm 1 m/s 758 mmHg 68%
06:00 +11°C° 0 mm 1 m/s 758 mmHg 69%
07:00 +11°C° 0 mm 1 m/s 758 mmHg 70%
08:00 +12°C° 0 mm 1 m/s 758 mmHg 72%
09:00 +12°C° 0.2 mm 1 m/s 758 mmHg 74%
10:00 +12°C° 0.2 mm 1 m/s 758 mmHg 76%
11:00 +12°C° 0.2 mm 1 m/s 758 mmHg 79%
12:00 +12°C° 0.1 mm 1 m/s 758 mmHg 80%
13:00 +11°C° 0.1 mm 1 m/s 758 mmHg 82%
14:00 +10°C° 0.1 mm 2 m/s 758 mmHg 83%
15:00 +10°C° 0.1 mm 2 m/s 757 mmHg 85%
16:00 +10°C° 0.1 mm 2 m/s 757 mmHg 87%
17:00 +10°C° 0.1 mm 3 m/s 757 mmHg 89%
18:00 +9°C° 0 mm 3 m/s 757 mmHg 91%
19:00 +9°C° 0 mm 3 m/s 757 mmHg 92%
20:00 +9°C° 0 mm 3 m/s 757 mmHg 94%
21:00 +9°C° 0 mm 3 m/s 757 mmHg 93%
22:00 +9°C° 0 mm 3 m/s 756 mmHg 93%
23:00 +9°C° 0 mm 3 m/s 756 mmHg 93%

Depois de amanhã, 14 Abril, Quarta-feira

Tempo Temperatura Precipitação Vento Pressão Humidade
00:00 +8°C° 0 mm 3 m/s 756 mmHg 92%
01:00 +7°C° 0 mm 4 m/s 756 mmHg 91%
02:00 +7°C° 0 mm 4 m/s 756 mmHg 91%
03:00 +7°C° 0 mm 4 m/s 755 mmHg 91%
04:00 +7°C° 0 mm 4 m/s 755 mmHg 92%
05:00 +7°C° 0 mm 4 m/s 755 mmHg 92%
06:00 +7°C° 0.1 mm 4 m/s 755 mmHg 92%
07:00 +7°C° 0.1 mm 4 m/s 755 mmHg 91%
08:00 +7°C° 0.1 mm 5 m/s 755 mmHg 90%
09:00 +8°C° 0.1 mm 5 m/s 755 mmHg 87%
10:00 +8°C° 0.1 mm 5 m/s 755 mmHg 84%
11:00 +9°C° 0.1 mm 5 m/s 755 mmHg 81%
12:00 +9°C° 0.1 mm 5 m/s 754 mmHg 77%
13:00 +10°C° 0.1 mm 6 m/s 754 mmHg 73%
14:00 +11°C° 0.1 mm 6 m/s 754 mmHg 70%
15:00 +10°C° 0.5 mm 6 m/s 754 mmHg 76%
16:00 +9°C° 0.5 mm 5 m/s 753 mmHg 83%
17:00 +8°C° 0.5 mm 5 m/s 753 mmHg 90%
18:00 +8°C° 0.2 mm 5 m/s 753 mmHg 91%
19:00 +8°C° 0.2 mm 5 m/s 753 mmHg 93%
20:00 +7°C° 0.2 mm 5 m/s 753 mmHg 94%
21:00 +7°C° 0.1 mm 4 m/s 753 mmHg 95%
22:00 +7°C° 0.1 mm 4 m/s 753 mmHg 95%
23:00 +8°C° 0.1 mm 3 m/s 753 mmHg 96%

15 Abril, Quinta-feira

Tempo Temperatura Precipitação Vento Pressão Humidade
00:00 +8°C° 0 mm 3 m/s 753 mmHg 96%
01:00 +8°C° 0 mm 2 m/s 753 mmHg 96%
02:00 +9°C° 0 mm 1 m/s 753 mmHg 97%
03:00 +9°C° 0.3 mm 1 m/s 753 mmHg 96%
04:00 +9°C° 0.3 mm 1 m/s 753 mmHg 96%
05:00 +9°C° 0.3 mm 1 m/s 753 mmHg 96%
06:00 +9°C° 0.3 mm 1 m/s 753 mmHg 95%
07:00 +10°C° 0.3 mm 1 m/s 753 mmHg 95%
08:00 +10°C° 0.3 mm 1 m/s 753 mmHg 94%
09:00 +10°C° 0.3 mm 1 m/s 753 mmHg 93%
10:00 +9°C° 0.3 mm 2 m/s 753 mmHg 92%
11:00 +9°C° 0.3 mm 2 m/s 753 mmHg 91%
12:00 +9°C° 0.1 mm 2 m/s 753 mmHg 91%
13:00 +9°C° 0.1 mm 3 m/s 753 mmHg 90%
14:00 +9°C° 0.1 mm 3 m/s 753 mmHg 90%
15:00 +8°C° 0.1 mm 4 m/s 753 mmHg 90%
16:00 +8°C° 0.1 mm 4 m/s 753 mmHg 91%
17:00 +7°C° 0.1 mm 4 m/s 753 mmHg 91%
18:00 +7°C° 0.2 mm 4 m/s 753 mmHg 91%
19:00 +7°C° 0.2 mm 4 m/s 754 mmHg 92%
20:00 +6°C° 0.2 mm 4 m/s 754 mmHg 92%
21:00 +6°C° 0.5 mm 5 m/s 754 mmHg 92%
22:00 +6°C° 0.5 mm 5 m/s 753 mmHg 93%
23:00 +6°C° 0.5 mm 5 m/s 753 mmHg 93%

16 Abril, Sexta-feira

Tempo Temperatura Precipitação Vento Pressão Humidade
00:00 +5°C° 0.4 mm 5 m/s 753 mmHg 93%
01:00 +5°C° 0.4 mm 5 m/s 753 mmHg 93%
02:00 +5°C° 0.4 mm 5 m/s 753 mmHg 92%
03:00 +5°C° 0.5 mm 5 m/s 753 mmHg 93%
04:00 +5°C° 0.5 mm 5 m/s 752 mmHg 93%
05:00 +5°C° 0.5 mm 5 m/s 752 mmHg 93%
06:00 +4°C° 0.8 mm 6 m/s 752 mmHg 93%
07:00 +3°C° 0.8 mm 6 m/s 752 mmHg 93%
08:00 +3°C° 0.8 mm 7 m/s 753 mmHg 93%
09:00 +3°C° 0.4 mm 7 m/s 753 mmHg 92%
10:00 +3°C° 0.4 mm 7 m/s 753 mmHg 92%
11:00 +3°C° 0.4 mm 7 m/s 753 mmHg 92%
12:00 +4°C° 0.9 mm 7 m/s 752 mmHg 92%
13:00 +5°C° 0.9 mm 7 m/s 752 mmHg 93%
14:00 +5°C° 0.9 mm 7 m/s 752 mmHg 93%
15:00 +6°C° 0.9 mm 7 m/s 752 mmHg 92%
16:00 +6°C° 0.9 mm 8 m/s 752 mmHg 92%
17:00 +7°C° 0.9 mm 8 m/s 752 mmHg 91%
18:00 +7°C° 0.1 mm 8 m/s 753 mmHg 91%
19:00 +6°C° 0.1 mm 8 m/s 753 mmHg 91%
20:00 +6°C° 0.1 mm 8 m/s 754 mmHg 91%
21:00 +6°C° 0.2 mm 8 m/s 754 mmHg 92%
22:00 +6°C° 0.2 mm 8 m/s 754 mmHg 92%
23:00 +6°C° 0.2 mm 8 m/s 754 mmHg 92%

17 Abril, Sábado

Tempo Temperatura Precipitação Vento Pressão Humidade
00:00 +6°C° 0.1 mm 8 m/s 755 mmHg 91%
01:00 +6°C° 0.1 mm 7 m/s 755 mmHg 90%
02:00 +7°C° 0.1 mm 6 m/s 756 mmHg 89%
03:00 +5°C° 0 mm 6 m/s 756 mmHg 89%
04:00 +6°C° 0 mm 5 m/s 757 mmHg 88%
05:00 +6°C° 0 mm 5 m/s 757 mmHg 88%
06:00 +6°C° 0 mm 5 m/s 758 mmHg 87%
07:00 +6°C° 0 mm 5 m/s 758 mmHg 87%
08:00 +7°C° 0 mm 5 m/s 759 mmHg 86%
09:00 +8°C° 0 mm 5 m/s 759 mmHg 75%
10:00 +10°C° 0 mm 5 m/s 759 mmHg 64%
11:00 +13°C° 0 mm 6 m/s 759 mmHg 53%
12:00 +13°C° 0 mm 5 m/s 759 mmHg 53%
13:00 +13°C° 0 mm 5 m/s 759 mmHg 53%
14:00 +13°C° 0 mm 4 m/s 760 mmHg 53%
15:00 +13°C° 0 mm 4 m/s 759 mmHg 52%
16:00 +13°C° 0 mm 4 m/s 759 mmHg 51%
17:00 +14°C° 0 mm 4 m/s 759 mmHg 50%
18:00 +12°C° 0 mm 4 m/s 759 mmHg 57%
19:00 +11°C° 0 mm 4 m/s 759 mmHg 65%
20:00 +10°C° 0 mm 4 m/s 760 mmHg 72%
21:00 +8°C° 0 mm 4 m/s 760 mmHg 78%
22:00 +8°C° 0 mm 4 m/s 760 mmHg 85%
23:00 +7°C° 0 mm 4 m/s 760 mmHg 92%
Mostrar mais